Year,Month,Day,Hour,Minute,Value (Times are PST for temperature in C)
2010,08,16,00,00,18.60
2010,08,16,00,01,18.60
2010,08,16,00,02,18.70
2010,08,16,00,03,18.70
2010,08,16,00,04,18.70
2010,08,16,00,05,18.70
2010,08,16,00,06,18.70
2010,08,16,00,07,18.70
2010,08,16,00,08,18.80
2010,08,16,00,09,18.80
2010,08,16,00,10,18.80
2010,08,16,00,11,18.80
2010,08,16,00,12,18.80
2010,08,16,00,13,18.80
2010,08,16,00,14,18.80
2010,08,16,00,15,18.80
2010,08,16,00,16,18.80
2010,08,16,00,17,18.80
2010,08,16,00,18,18.90
2010,08,16,00,19,18.90
2010,08,16,00,20,18.90
2010,08,16,00,21,18.90
2010,08,16,00,22,18.90
2010,08,16,00,23,19.00
2010,08,16,00,24,19.10
2010,08,16,00,25,19.10
2010,08,16,00,26,19.10
2010,08,16,00,27,19.20
2010,08,16,00,28,19.20
2010,08,16,00,29,19.20
2010,08,16,00,30,19.30
2010,08,16,00,31,19.30
2010,08,16,00,32,19.30
2010,08,16,00,33,19.30
2010,08,16,00,34,19.30
2010,08,16,00,35,19.30
2010,08,16,00,36,19.30
2010,08,16,00,37,19.30
2010,08,16,00,38,19.30
2010,08,16,00,39,19.30
2010,08,16,00,40,19.20
2010,08,16,00,41,19.20
2010,08,16,00,42,19.10
2010,08,16,00,43,19.10
2010,08,16,00,44,19.10
2010,08,16,00,45,19.00
2010,08,16,00,46,19.00
2010,08,16,00,47,18.90
2010,08,16,00,48,18.90
2010,08,16,00,49,18.90
2010,08,16,00,50,18.80
2010,08,16,00,51,18.80
2010,08,16,00,52,18.80
2010,08,16,00,53,18.80
2010,08,16,00,54,18.80
2010,08,16,00,55,18.70
2010,08,16,00,56,18.70
2010,08,16,00,57,18.70
2010,08,16,00,58,18.70
2010,08,16,00,59,18.70
2010,08,16,01,00,18.60
2010,08,16,01,01,18.60
2010,08,16,01,02,18.60
2010,08,16,01,03,18.60
2010,08,16,01,04,18.60
2010,08,16,01,05,18.60
2010,08,16,01,06,18.50
2010,08,16,01,07,18.50
2010,08,16,01,08,18.50
2010,08,16,01,09,18.50
2010,08,16,01,10,18.50
2010,08,16,01,11,18.50
2010,08,16,01,12,18.50
2010,08,16,01,13,18.50
2010,08,16,01,14,18.50
2010,08,16,01,15,18.50
2010,08,16,01,16,18.60
2010,08,16,01,17,18.60
2010,08,16,01,18,18.60
2010,08,16,01,19,18.60
2010,08,16,01,20,18.60
2010,08,16,01,21,18.70
2010,08,16,01,22,18.70
2010,08,16,01,23,18.70
2010,08,16,01,24,18.80
2010,08,16,01,25,18.80
2010,08,16,01,26,18.80
2010,08,16,01,27,18.80
2010,08,16,01,28,18.80
2010,08,16,01,29,18.80
2010,08,16,01,30,18.80
2010,08,16,01,31,18.90
2010,08,16,01,32,18.90
2010,08,16,01,33,18.90
2010,08,16,01,34,18.90
2010,08,16,01,35,18.90
2010,08,16,01,36,18.80
2010,08,16,01,37,18.80
2010,08,16,01,38,18.80
2010,08,16,01,39,18.80
2010,08,16,01,40,18.80
2010,08,16,01,41,18.90
2010,08,16,01,42,18.90
2010,08,16,01,43,18.90
2010,08,16,01,44,18.90
2010,08,16,01,45,19.00
2010,08,16,01,46,19.00
2010,08,16,01,47,19.10
2010,08,16,01,48,19.20
2010,08,16,01,49,19.20
2010,08,16,01,50,19.30
2010,08,16,01,51,19.30
2010,08,16,01,52,19.30
2010,08,16,01,53,19.30
2010,08,16,01,54,19.40
2010,08,16,01,55,19.40
2010,08,16,01,56,19.40
2010,08,16,01,57,19.40
2010,08,16,01,58,19.40
2010,08,16,01,59,19.40
2010,08,16,02,00,19.40
2010,08,16,02,01,19.40
2010,08,16,02,02,19.40
2010,08,16,02,03,19.40
2010,08,16,02,04,19.40
2010,08,16,02,05,19.40
2010,08,16,02,06,19.40
2010,08,16,02,07,19.40
2010,08,16,02,08,19.40
2010,08,16,02,09,19.40
2010,08,16,02,10,19.40
2010,08,16,02,11,19.40
2010,08,16,02,12,19.30
2010,08,16,02,13,19.30
2010,08,16,02,14,19.30
2010,08,16,02,15,19.30
2010,08,16,02,16,19.30
2010,08,16,02,17,19.30
2010,08,16,02,18,19.30
2010,08,16,02,19,19.30
2010,08,16,02,20,19.20
2010,08,16,02,21,19.20
2010,08,16,02,22,19.30
2010,08,16,02,23,19.30
2010,08,16,02,24,19.30
2010,08,16,02,25,19.30
2010,08,16,02,26,19.30
2010,08,16,02,27,19.30
2010,08,16,02,28,19.30
2010,08,16,02,29,19.30
2010,08,16,02,30,19.30
2010,08,16,02,31,19.30
2010,08,16,02,32,19.30
2010,08,16,02,33,19.30
2010,08,16,02,34,19.30
2010,08,16,02,35,19.30
2010,08,16,02,36,19.20
2010,08,16,02,37,19.20
2010,08,16,02,38,19.20
2010,08,16,02,39,19.20
2010,08,16,02,40,19.20
2010,08,16,02,41,19.20
2010,08,16,02,42,19.10
2010,08,16,02,43,19.10
2010,08,16,02,44,19.10
2010,08,16,02,45,19.10
2010,08,16,02,46,19.10
2010,08,16,02,47,19.10
2010,08,16,02,48,19.00
2010,08,16,02,49,19.00
2010,08,16,02,50,18.90
2010,08,16,02,51,18.90
2010,08,16,02,52,18.90
2010,08,16,02,53,18.80
2010,08,16,02,54,18.80
2010,08,16,02,55,18.80
2010,08,16,02,56,18.70
2010,08,16,02,57,18.70
2010,08,16,02,58,18.70
2010,08,16,02,59,18.70
2010,08,16,03,00,18.60
2010,08,16,03,01,18.60
2010,08,16,03,02,18.60
2010,08,16,03,03,18.60
2010,08,16,03,04,18.50
2010,08,16,03,05,18.50
2010,08,16,03,06,18.50
2010,08,16,03,07,18.40
2010,08,16,03,08,18.40
2010,08,16,03,09,18.40
2010,08,16,03,10,18.40
2010,08,16,03,11,18.30
2010,08,16,03,12,18.30
2010,08,16,03,13,18.30
2010,08,16,03,14,18.30
2010,08,16,03,15,18.30
2010,08,16,03,16,18.30
2010,08,16,03,17,18.30
2010,08,16,03,18,18.30
2010,08,16,03,19,18.30
2010,08,16,03,20,18.30
2010,08,16,03,21,18.30
2010,08,16,03,22,18.30
2010,08,16,03,23,18.30
2010,08,16,03,24,18.30
2010,08,16,03,25,18.30
2010,08,16,03,26,18.30
2010,08,16,03,27,18.30
2010,08,16,03,28,18.40
2010,08,16,03,29,18.40
2010,08,16,03,30,18.40
2010,08,16,03,31,18.40
2010,08,16,03,32,18.40
2010,08,16,03,33,18.50
2010,08,16,03,34,18.50
2010,08,16,03,35,18.50
2010,08,16,03,36,18.60
2010,08,16,03,37,18.60
2010,08,16,03,38,18.60
2010,08,16,03,39,18.70
2010,08,16,03,40,18.70
2010,08,16,03,41,18.70
2010,08,16,03,42,18.80
2010,08,16,03,43,18.80
2010,08,16,03,44,18.80
2010,08,16,03,45,18.80
2010,08,16,03,46,18.80
2010,08,16,03,47,18.80
2010,08,16,03,48,18.80
2010,08,16,03,49,18.90
2010,08,16,03,50,18.90
2010,08,16,03,51,18.90
2010,08,16,03,52,18.90
2010,08,16,03,53,18.90
2010,08,16,03,54,18.90
2010,08,16,03,55,18.90
2010,08,16,03,56,18.90
2010,08,16,03,57,18.80
2010,08,16,03,58,18.80
2010,08,16,03,59,18.80
2010,08,16,04,00,18.80
2010,08,16,04,01,18.70
2010,08,16,04,02,18.70
2010,08,16,04,03,18.70
2010,08,16,04,04,18.70
2010,08,16,04,05,18.60
2010,08,16,04,06,18.60
2010,08,16,04,07,18.60
2010,08,16,04,08,18.50
2010,08,16,04,09,18.50
2010,08,16,04,10,18.40
2010,08,16,04,11,18.40
2010,08,16,04,12,18.40
2010,08,16,04,13,18.30
2010,08,16,04,14,18.30
2010,08,16,04,15,18.20
2010,08,16,04,16,18.20
2010,08,16,04,17,18.10
2010,08,16,04,18,18.10
2010,08,16,04,19,18.10
2010,08,16,04,20,18.00
2010,08,16,04,21,18.00
2010,08,16,04,22,17.90
2010,08,16,04,23,17.90
2010,08,16,04,24,17.80
2010,08,16,04,25,17.80
2010,08,16,04,26,17.80
2010,08,16,04,27,17.70
2010,08,16,04,28,17.70
2010,08,16,04,29,17.70
2010,08,16,04,30,17.60
2010,08,16,04,31,17.60
2010,08,16,04,32,17.60
2010,08,16,04,33,17.60
2010,08,16,04,34,17.60
2010,08,16,04,35,17.60
2010,08,16,04,36,17.50
2010,08,16,04,37,17.50
2010,08,16,04,38,17.60
2010,08,16,04,39,17.60
2010,08,16,04,40,17.60
2010,08,16,04,41,17.50
2010,08,16,04,42,17.60
2010,08,16,04,43,17.50
2010,08,16,04,44,17.50
2010,08,16,04,45,17.50
2010,08,16,04,46,17.40
2010,08,16,04,47,17.40
2010,08,16,04,48,17.40
2010,08,16,04,49,17.40
2010,08,16,04,50,17.40
2010,08,16,04,51,17.40
2010,08,16,04,52,17.40
2010,08,16,04,53,17.30
2010,08,16,04,54,17.30
2010,08,16,04,55,17.40
2010,08,16,04,56,17.40
2010,08,16,04,57,17.40
2010,08,16,04,58,17.30
2010,08,16,04,59,17.30
2010,08,16,05,00,17.30
2010,08,16,05,01,17.30
2010,08,16,05,02,17.30
2010,08,16,05,03,17.30
2010,08,16,05,04,17.30
2010,08,16,05,05,17.30
2010,08,16,05,06,17.30
2010,08,16,05,07,17.30
2010,08,16,05,08,17.30
2010,08,16,05,09,17.30
2010,08,16,05,10,17.30
2010,08,16,05,11,17.30
2010,08,16,05,12,17.30
2010,08,16,05,13,17.30
2010,08,16,05,14,17.30
2010,08,16,05,15,17.40
2010,08,16,05,16,17.40
2010,08,16,05,17,17.40
2010,08,16,05,18,17.50
2010,08,16,05,19,17.60
2010,08,16,05,20,17.60
2010,08,16,05,21,17.70
2010,08,16,05,22,17.70
2010,08,16,05,23,17.80
2010,08,16,05,24,17.90
2010,08,16,05,25,18.00
2010,08,16,05,26,18.10
2010,08,16,05,27,18.20
2010,08,16,05,28,18.40
2010,08,16,05,29,18.50
2010,08,16,05,30,18.60
2010,08,16,05,31,18.70
2010,08,16,05,32,18.80
2010,08,16,05,33,18.90
2010,08,16,05,34,18.90
2010,08,16,05,35,19.00
2010,08,16,05,36,19.10
2010,08,16,05,37,19.10
2010,08,16,05,38,19.20
2010,08,16,05,39,19.20
2010,08,16,05,40,19.20
2010,08,16,05,41,19.20
2010,08,16,05,42,19.20
2010,08,16,05,43,19.20
2010,08,16,05,44,19.20
2010,08,16,05,45,19.20
2010,08,16,05,46,19.10
2010,08,16,05,47,19.10
2010,08,16,05,48,19.00
2010,08,16,05,49,19.00
2010,08,16,05,50,18.90
2010,08,16,05,51,18.90
2010,08,16,05,52,18.80
2010,08,16,05,53,18.80
2010,08,16,05,54,18.80
2010,08,16,05,55,18.80
2010,08,16,05,56,18.80
2010,08,16,05,57,18.80
2010,08,16,05,58,18.90
2010,08,16,05,59,18.90
2010,08,16,06,00,18.90
2010,08,16,06,01,18.90
2010,08,16,06,02,18.90
2010,08,16,06,03,19.00
2010,08,16,06,04,19.00
2010,08,16,06,05,18.90
2010,08,16,06,06,18.90
2010,08,16,06,07,18.90
2010,08,16,06,08,18.90
2010,08,16,06,09,18.90
2010,08,16,06,10,18.80
2010,08,16,06,11,18.80
2010,08,16,06,12,18.80
2010,08,16,06,13,18.80
2010,08,16,06,14,18.80
2010,08,16,06,15,18.70
2010,08,16,06,16,18.70
2010,08,16,06,17,18.70
2010,08,16,06,18,18.70
2010,08,16,06,19,18.60
2010,08,16,06,20,18.60
2010,08,16,06,21,18.60
2010,08,16,06,22,18.50
2010,08,16,06,23,18.50
2010,08,16,06,24,18.40
2010,08,16,06,25,18.40
2010,08,16,06,26,18.40
2010,08,16,06,27,18.30
2010,08,16,06,28,18.30
2010,08,16,06,29,18.30
2010,08,16,06,30,18.30
2010,08,16,06,31,18.20
2010,08,16,06,32,18.20
2010,08,16,06,33,18.20
2010,08,16,06,34,18.20
2010,08,16,06,35,18.20
2010,08,16,06,36,18.20
2010,08,16,06,37,18.20
2010,08,16,06,38,18.20
2010,08,16,06,39,18.30
2010,08,16,06,40,18.30
2010,08,16,06,41,18.40
2010,08,16,06,42,18.40
2010,08,16,06,43,18.40
2010,08,16,06,44,18.50
2010,08,16,06,45,18.50
2010,08,16,06,46,18.60
2010,08,16,06,47,18.60
2010,08,16,06,48,18.60
2010,08,16,06,49,18.60
2010,08,16,06,50,18.60
2010,08,16,06,51,18.60
2010,08,16,06,52,18.60
2010,08,16,06,53,18.50
2010,08,16,06,54,18.50
2010,08,16,06,55,18.50
2010,08,16,06,56,18.50
2010,08,16,06,57,18.50
2010,08,16,06,58,18.50
2010,08,16,06,59,18.50
2010,08,16,07,00,18.50
2010,08,16,07,01,18.60
2010,08,16,07,02,18.60
2010,08,16,07,03,18.70
2010,08,16,07,04,18.70
2010,08,16,07,05,18.80
2010,08,16,07,06,18.90
2010,08,16,07,07,19.00
2010,08,16,07,08,19.00
2010,08,16,07,09,19.10
2010,08,16,07,10,19.20
2010,08,16,07,11,19.20
2010,08,16,07,12,19.30
2010,08,16,07,13,19.30
2010,08,16,07,14,19.30
2010,08,16,07,15,19.40
2010,08,16,07,16,19.40
2010,08,16,07,17,19.40
2010,08,16,07,18,19.40
2010,08,16,07,19,19.50
2010,08,16,07,20,19.50
2010,08,16,07,21,19.50
2010,08,16,07,22,19.50
2010,08,16,07,23,19.50
2010,08,16,07,24,19.50
2010,08,16,07,25,19.50
2010,08,16,07,26,19.50
2010,08,16,07,27,19.40
2010,08,16,07,28,19.40
2010,08,16,07,29,19.40
2010,08,16,07,30,19.40
2010,08,16,07,31,19.40
2010,08,16,07,32,19.40
2010,08,16,07,33,19.50
2010,08,16,07,34,19.60
2010,08,16,07,35,19.60
2010,08,16,07,36,19.70
2010,08,16,07,37,19.80
2010,08,16,07,38,19.80
2010,08,16,07,39,20.00
2010,08,16,07,40,20.10
2010,08,16,07,41,20.20
2010,08,16,07,42,20.30
2010,08,16,07,43,20.40
2010,08,16,07,44,20.60
2010,08,16,07,45,20.70
2010,08,16,07,46,20.90
2010,08,16,07,47,21.00
2010,08,16,07,48,21.20
2010,08,16,07,49,21.40
2010,08,16,07,50,21.50
2010,08,16,07,51,21.70
2010,08,16,07,52,21.80
2010,08,16,07,53,21.90
2010,08,16,07,54,22.00
2010,08,16,07,55,22.10
2010,08,16,07,56,22.20
2010,08,16,07,57,22.30
2010,08,16,07,58,22.40
2010,08,16,07,59,22.40
2010,08,16,08,00,22.50
2010,08,16,08,01,22.50
2010,08,16,08,02,22.60
2010,08,16,08,03,22.70
2010,08,16,08,04,22.80
2010,08,16,08,05,22.80
2010,08,16,08,06,22.90
2010,08,16,08,07,23.00
2010,08,16,08,08,23.10
2010,08,16,08,09,23.10
2010,08,16,08,10,23.20
2010,08,16,08,11,23.30
2010,08,16,08,12,23.30
2010,08,16,08,13,23.40
2010,08,16,08,14,23.50
2010,08,16,08,15,23.50
2010,08,16,08,16,23.60
2010,08,16,08,17,23.70
2010,08,16,08,18,23.70
2010,08,16,08,19,23.70
2010,08,16,08,20,23.70
2010,08,16,08,21,23.80
2010,08,16,08,22,23.80
2010,08,16,08,23,23.80
2010,08,16,08,24,23.90
2010,08,16,08,25,23.90
2010,08,16,08,26,23.90
2010,08,16,08,27,23.90
2010,08,16,08,28,24.00
2010,08,16,08,29,24.00
2010,08,16,08,30,24.10
2010,08,16,08,31,24.10
2010,08,16,08,32,24.20
2010,08,16,08,33,24.30
2010,08,16,08,34,24.40
2010,08,16,08,35,24.40
2010,08,16,08,36,24.50
2010,08,16,08,37,24.60
2010,08,16,08,38,24.60
2010,08,16,08,39,24.60
2010,08,16,08,40,24.70
2010,08,16,08,41,24.70
2010,08,16,08,42,24.70
2010,08,16,08,43,24.70
2010,08,16,08,44,24.70
2010,08,16,08,45,24.80
2010,08,16,08,46,24.80
2010,08,16,08,47,24.90
2010,08,16,08,48,24.90
2010,08,16,08,49,24.90
2010,08,16,08,50,24.90
2010,08,16,08,51,24.90
2010,08,16,08,52,24.90
2010,08,16,08,53,25.00
2010,08,16,08,54,25.00
2010,08,16,08,55,25.10
2010,08,16,08,56,25.10
2010,08,16,08,57,25.20
2010,08,16,08,58,25.20
2010,08,16,08,59,25.20
2010,08,16,09,00,25.20
2010,08,16,09,01,25.20
2010,08,16,09,02,25.20
2010,08,16,09,03,25.20
2010,08,16,09,04,25.20
2010,08,16,09,05,25.20
2010,08,16,09,06,25.10
2010,08,16,09,07,25.10
2010,08,16,09,08,25.20
2010,08,16,09,09,25.20
2010,08,16,09,10,25.30
2010,08,16,09,11,25.20
2010,08,16,09,12,25.20
2010,08,16,09,13,25.10
2010,08,16,09,14,25.10
2010,08,16,09,15,25.10
2010,08,16,09,16,25.00
2010,08,16,09,17,25.10
2010,08,16,09,18,25.10
2010,08,16,09,19,25.10
2010,08,16,09,20,25.10
2010,08,16,09,21,25.10
2010,08,16,09,22,25.10
2010,08,16,09,23,25.10
2010,08,16,09,24,25.10
2010,08,16,09,25,25.10
2010,08,16,09,26,25.10
2010,08,16,09,27,25.10
2010,08,16,09,28,25.00
2010,08,16,09,29,25.00
2010,08,16,09,30,25.00
2010,08,16,09,31,25.00
2010,08,16,09,32,25.00
2010,08,16,09,33,25.00
2010,08,16,09,34,25.00
2010,08,16,09,35,25.10
2010,08,16,09,36,25.10
2010,08,16,09,37,25.20
2010,08,16,09,38,25.20
2010,08,16,09,39,25.30
2010,08,16,09,40,25.40
2010,08,16,09,41,25.50
2010,08,16,09,42,25.50
2010,08,16,09,43,25.60
2010,08,16,09,44,25.70
2010,08,16,09,45,25.70
2010,08,16,09,46,25.70
2010,08,16,09,47,25.80
2010,08,16,09,48,25.80
2010,08,16,09,49,25.80
2010,08,16,09,50,25.80
2010,08,16,09,51,25.80
2010,08,16,09,52,25.80
2010,08,16,09,53,25.90
2010,08,16,09,54,25.90
2010,08,16,09,55,25.90
2010,08,16,09,56,26.00
2010,08,16,09,57,26.00
2010,08,16,09,58,26.00
2010,08,16,09,59,26.00
2010,08,16,10,00,26.00
2010,08,16,10,01,26.00
2010,08,16,10,02,26.10
2010,08,16,10,03,26.10
2010,08,16,10,04,26.20
2010,08,16,10,05,26.30
2010,08,16,10,06,26.30
2010,08,16,10,07,26.30
2010,08,16,10,08,26.20
2010,08,16,10,09,26.10
2010,08,16,10,10,26.00
2010,08,16,10,11,25.90
2010,08,16,10,12,25.90
2010,08,16,10,13,25.90
2010,08,16,10,14,25.90
2010,08,16,10,15,26.00
2010,08,16,10,16,26.10
2010,08,16,10,17,26.30
2010,08,16,10,18,26.30
2010,08,16,10,19,26.40
2010,08,16,10,20,26.50
2010,08,16,10,21,26.60
2010,08,16,10,22,26.70
2010,08,16,10,23,26.60
2010,08,16,10,24,26.40
2010,08,16,10,25,26.30
2010,08,16,10,26,26.20
2010,08,16,10,27,26.20
2010,08,16,10,28,26.20
2010,08,16,10,29,26.30
2010,08,16,10,30,26.30
2010,08,16,10,31,26.40
2010,08,16,10,32,26.50
2010,08,16,10,33,26.60
2010,08,16,10,34,26.60
2010,08,16,10,35,26.70
2010,08,16,10,36,26.80
2010,08,16,10,37,26.90
2010,08,16,10,38,27.00
2010,08,16,10,39,27.10
2010,08,16,10,40,27.10
2010,08,16,10,41,27.20
2010,08,16,10,42,27.30
2010,08,16,10,43,27.30
2010,08,16,10,44,27.30
2010,08,16,10,45,27.30
2010,08,16,10,46,27.40
2010,08,16,10,47,27.50
2010,08,16,10,48,27.60
2010,08,16,10,49,27.60
2010,08,16,10,50,27.70
2010,08,16,10,51,27.70
2010,08,16,10,52,27.70
2010,08,16,10,53,27.80
2010,08,16,10,54,27.80
2010,08,16,10,55,27.90
2010,08,16,10,56,27.90
2010,08,16,10,57,27.90
2010,08,16,10,58,27.70
2010,08,16,10,59,27.60
2010,08,16,11,00,27.40
2010,08,16,11,01,27.30
2010,08,16,11,02,27.20
2010,08,16,11,03,27.00
2010,08,16,11,04,26.80
2010,08,16,11,05,26.70
2010,08,16,11,06,26.60
2010,08,16,11,07,26.60
2010,08,16,11,08,26.60
2010,08,16,11,09,26.50
2010,08,16,11,10,26.50
2010,08,16,11,11,26.50
2010,08,16,11,12,26.50
2010,08,16,11,13,26.60
2010,08,16,11,14,26.70
2010,08,16,11,15,26.80
2010,08,16,11,16,26.90
2010,08,16,11,17,27.00
2010,08,16,11,18,27.10
2010,08,16,11,19,27.20
2010,08,16,11,20,27.20
2010,08,16,11,21,27.10
2010,08,16,11,22,27.00
2010,08,16,11,23,26.90
2010,08,16,11,24,27.00
2010,08,16,11,25,27.00
2010,08,16,11,26,26.90
2010,08,16,11,27,27.00
2010,08,16,11,28,27.00
2010,08,16,11,29,26.90
2010,08,16,11,30,26.90
2010,08,16,11,31,26.90
2010,08,16,11,32,26.80
2010,08,16,11,33,26.80
2010,08,16,11,34,26.70
2010,08,16,11,35,26.70
2010,08,16,11,36,26.80
2010,08,16,11,37,26.90
2010,08,16,11,38,26.90
2010,08,16,11,39,26.90
2010,08,16,11,40,26.90
2010,08,16,11,41,26.80
2010,08,16,11,42,26.70
2010,08,16,11,43,26.70
2010,08,16,11,44,26.70
2010,08,16,11,45,26.70
2010,08,16,11,46,26.70
2010,08,16,11,47,26.80
2010,08,16,11,48,26.80
2010,08,16,11,49,26.80
2010,08,16,11,50,26.80
2010,08,16,11,51,26.70
2010,08,16,11,52,26.60
2010,08,16,11,53,26.60
2010,08,16,11,54,26.60
2010,08,16,11,55,26.60
2010,08,16,11,56,26.60
2010,08,16,11,57,26.70
2010,08,16,11,58,26.80
2010,08,16,11,59,26.90
2010,08,16,12,00,27.10
2010,08,16,12,01,27.10
2010,08,16,12,02,27.10
2010,08,16,12,03,27.10
2010,08,16,12,04,27.00
2010,08,16,12,05,27.10
2010,08,16,12,06,27.10
2010,08,16,12,07,27.20
2010,08,16,12,08,27.20
2010,08,16,12,09,27.30
2010,08,16,12,10,27.30
2010,08,16,12,11,27.40
2010,08,16,12,12,27.50
2010,08,16,12,13,27.60
2010,08,16,12,14,27.70
2010,08,16,12,15,27.80
2010,08,16,12,16,27.90
2010,08,16,12,17,27.90
2010,08,16,12,18,27.90
2010,08,16,12,19,27.90
2010,08,16,12,20,28.00
2010,08,16,12,21,28.10
2010,08,16,12,22,28.10
2010,08,16,12,23,28.00
2010,08,16,12,24,28.00
2010,08,16,12,25,27.90
2010,08,16,12,26,27.90
2010,08,16,12,27,27.80
2010,08,16,12,28,27.80
2010,08,16,12,29,27.90
2010,08,16,12,30,28.00
2010,08,16,12,31,28.00
2010,08,16,12,32,28.10
2010,08,16,12,33,28.30
2010,08,16,12,34,28.30
2010,08,16,12,35,28.40
2010,08,16,12,36,28.40
2010,08,16,12,37,28.30
2010,08,16,12,38,28.20
2010,08,16,12,39,28.10
2010,08,16,12,40,28.00
2010,08,16,12,41,28.00
2010,08,16,12,42,27.90
2010,08,16,12,43,28.00
2010,08,16,12,44,28.00
2010,08,16,12,45,28.00
2010,08,16,12,46,28.00
2010,08,16,12,47,27.90
2010,08,16,12,48,27.80
2010,08,16,12,49,27.90
2010,08,16,12,50,27.90
2010,08,16,12,51,27.80
2010,08,16,12,52,27.80
2010,08,16,12,53,27.80
2010,08,16,12,54,27.80
2010,08,16,12,55,27.80
2010,08,16,12,56,27.90
2010,08,16,12,57,27.90
2010,08,16,12,58,28.00
2010,08,16,12,59,28.00
2010,08,16,13,00,28.10
2010,08,16,13,01,28.10
2010,08,16,13,02,28.10
2010,08,16,13,03,28.20
2010,08,16,13,04,28.20
2010,08,16,13,05,28.20
2010,08,16,13,06,28.30
2010,08,16,13,07,28.40
2010,08,16,13,08,28.40
2010,08,16,13,09,28.40
2010,08,16,13,10,28.50
2010,08,16,13,11,28.50
2010,08,16,13,12,28.50
2010,08,16,13,13,28.50
2010,08,16,13,14,28.50
2010,08,16,13,15,28.40
2010,08,16,13,16,28.40
2010,08,16,13,17,28.40
2010,08,16,13,18,28.40
2010,08,16,13,19,28.40
2010,08,16,13,20,28.30
2010,08,16,13,21,28.30
2010,08,16,13,22,28.30
2010,08,16,13,23,28.30
2010,08,16,13,24,28.30
2010,08,16,13,25,28.30
2010,08,16,13,26,28.20
2010,08,16,13,27,28.20
2010,08,16,13,28,28.20
2010,08,16,13,29,28.20
2010,08,16,13,30,28.20
2010,08,16,13,31,28.20
2010,08,16,13,32,28.20
2010,08,16,13,33,28.20
2010,08,16,13,34,28.20
2010,08,16,13,35,28.20
2010,08,16,13,36,28.20
2010,08,16,13,37,28.20
2010,08,16,13,38,28.20
2010,08,16,13,39,28.20
2010,08,16,13,40,28.20
2010,08,16,13,41,28.20
2010,08,16,13,42,28.20
2010,08,16,13,43,28.30
2010,08,16,13,44,28.30
2010,08,16,13,45,28.30
2010,08,16,13,46,28.30
2010,08,16,13,47,28.40
2010,08,16,13,48,28.30
2010,08,16,13,49,28.30
2010,08,16,13,50,28.20
2010,08,16,13,51,28.20
2010,08,16,13,52,28.10
2010,08,16,13,53,28.10
2010,08,16,13,54,28.10
2010,08,16,13,55,28.00
2010,08,16,13,56,27.90
2010,08,16,13,57,27.90
2010,08,16,13,58,27.80
2010,08,16,13,59,27.80
2010,08,16,14,00,27.80
2010,08,16,14,01,27.80
2010,08,16,14,02,27.80
2010,08,16,14,03,27.80
2010,08,16,14,04,27.80
2010,08,16,14,05,27.80
2010,08,16,14,06,27.80
2010,08,16,14,07,27.80
2010,08,16,14,08,27.80
2010,08,16,14,09,27.80
2010,08,16,14,10,27.90
2010,08,16,14,11,27.90
2010,08,16,14,12,28.00
2010,08,16,14,13,28.10
2010,08,16,14,14,28.10
2010,08,16,14,15,28.20
2010,08,16,14,16,28.20
2010,08,16,14,17,28.30
2010,08,16,14,18,28.30
2010,08,16,14,19,28.30
2010,08,16,14,20,28.30
2010,08,16,14,21,28.40
2010,08,16,14,22,28.50
2010,08,16,14,23,28.50
2010,08,16,14,24,28.60
2010,08,16,14,25,28.60
2010,08,16,14,26,28.60
2010,08,16,14,27,28.60
2010,08,16,14,28,28.70
2010,08,16,14,29,28.70
2010,08,16,14,30,28.70
2010,08,16,14,31,28.80
2010,08,16,14,32,28.80
2010,08,16,14,33,28.90
2010,08,16,14,34,29.00
2010,08,16,14,35,29.00
2010,08,16,14,36,29.10
2010,08,16,14,37,29.10
2010,08,16,14,38,29.10
2010,08,16,14,39,29.10
2010,08,16,14,40,29.10
2010,08,16,14,41,29.10
2010,08,16,14,42,29.20
2010,08,16,14,43,29.20
2010,08,16,14,44,29.30
2010,08,16,14,45,29.30
2010,08,16,14,46,29.30
2010,08,16,14,47,29.40
2010,08,16,14,48,29.40
2010,08,16,14,49,29.50
2010,08,16,14,50,29.60
2010,08,16,14,51,29.60
2010,08,16,14,52,29.60
2010,08,16,14,53,29.60
2010,08,16,14,54,29.60
2010,08,16,14,55,29.60
2010,08,16,14,56,29.60
2010,08,16,14,57,29.60
2010,08,16,14,58,29.50
2010,08,16,14,59,29.40
2010,08,16,15,00,29.40
2010,08,16,15,01,29.40
2010,08,16,15,02,29.40
2010,08,16,15,03,29.40
2010,08,16,15,04,29.30
2010,08,16,15,05,29.30
2010,08,16,15,06,29.30
2010,08,16,15,07,29.30
2010,08,16,15,08,29.40
2010,08,16,15,09,29.40
2010,08,16,15,10,29.40
2010,08,16,15,11,29.40
2010,08,16,15,12,29.30
2010,08,16,15,13,29.20
2010,08,16,15,14,29.20
2010,08,16,15,15,29.10
2010,08,16,15,16,29.00
2010,08,16,15,17,28.90
2010,08,16,15,18,28.90
2010,08,16,15,19,28.80
2010,08,16,15,20,28.70
2010,08,16,15,21,28.60
2010,08,16,15,22,28.50
2010,08,16,15,23,28.40
2010,08,16,15,24,28.30
2010,08,16,15,25,28.30
2010,08,16,15,26,28.20
2010,08,16,15,27,28.10
2010,08,16,15,28,28.00
2010,08,16,15,29,28.00
2010,08,16,15,30,27.90
2010,08,16,15,31,27.90
2010,08,16,15,32,27.90
2010,08,16,15,33,27.90
2010,08,16,15,34,27.90
2010,08,16,15,35,27.90
2010,08,16,15,36,27.90
2010,08,16,15,37,27.90
2010,08,16,15,38,27.80
2010,08,16,15,39,27.80
2010,08,16,15,40,27.70
2010,08,16,15,41,27.70
2010,08,16,15,42,27.60
2010,08,16,15,43,27.40
2010,08,16,15,44,27.30
2010,08,16,15,45,27.20
2010,08,16,15,46,27.10
2010,08,16,15,47,27.00
2010,08,16,15,48,26.90
2010,08,16,15,49,26.80
2010,08,16,15,50,26.70
2010,08,16,15,51,26.50
2010,08,16,15,52,26.40
2010,08,16,15,53,26.30
2010,08,16,15,54,26.20
2010,08,16,15,55,26.10
2010,08,16,15,56,26.00
2010,08,16,15,57,25.90
2010,08,16,15,58,25.90
2010,08,16,15,59,25.90
2010,08,16,16,00,25.90
2010,08,16,16,01,25.90
2010,08,16,16,02,25.90
2010,08,16,16,03,25.90
2010,08,16,16,04,26.00
2010,08,16,16,05,26.10
2010,08,16,16,06,26.10
2010,08,16,16,07,26.20
2010,08,16,16,08,26.20
2010,08,16,16,09,26.20
2010,08,16,16,10,26.20
2010,08,16,16,11,26.30
2010,08,16,16,12,26.30
2010,08,16,16,13,26.40
2010,08,16,16,14,26.40
2010,08,16,16,15,26.40
2010,08,16,16,16,26.40
2010,08,16,16,17,26.40
2010,08,16,16,18,26.40
2010,08,16,16,19,26.40
2010,08,16,16,20,26.40
2010,08,16,16,21,26.40
2010,08,16,16,22,26.40
2010,08,16,16,23,26.40
2010,08,16,16,24,26.40
2010,08,16,16,25,26.40
2010,08,16,16,26,26.40
2010,08,16,16,27,26.30
2010,08,16,16,28,26.30
2010,08,16,16,29,26.30
2010,08,16,16,30,26.30
2010,08,16,16,31,26.20
2010,08,16,16,32,26.20
2010,08,16,16,33,26.30
2010,08,16,16,34,26.30
2010,08,16,16,35,26.30
2010,08,16,16,36,26.30
2010,08,16,16,37,26.40
2010,08,16,16,38,26.40
2010,08,16,16,39,26.40
2010,08,16,16,40,26.40
2010,08,16,16,41,26.40
2010,08,16,16,42,26.40
2010,08,16,16,43,26.40
2010,08,16,16,44,26.40
2010,08,16,16,45,26.40
2010,08,16,16,46,26.40
2010,08,16,16,47,26.40
2010,08,16,16,48,26.30
2010,08,16,16,49,26.30
2010,08,16,16,50,26.30
2010,08,16,16,51,26.30
2010,08,16,16,52,26.30
2010,08,16,16,53,26.30
2010,08,16,16,54,26.30
2010,08,16,16,55,26.20
2010,08,16,16,56,26.20
2010,08,16,16,57,26.10
2010,08,16,16,58,26.00
2010,08,16,16,59,25.90
2010,08,16,17,00,25.90
2010,08,16,17,01,25.90
2010,08,16,17,02,25.80
2010,08,16,17,03,25.80
2010,08,16,17,04,25.70
2010,08,16,17,05,25.70
2010,08,16,17,06,25.70
2010,08,16,17,07,25.70
2010,08,16,17,08,25.70
2010,08,16,17,09,25.80
2010,08,16,17,10,25.80
2010,08,16,17,11,25.80
2010,08,16,17,12,25.80
2010,08,16,17,13,25.80
2010,08,16,17,14,25.80
2010,08,16,17,15,25.70
2010,08,16,17,16,25.70
2010,08,16,17,17,25.70
2010,08,16,17,18,25.70
2010,08,16,17,19,25.70